Погода в Намангане

Погода в Намангане : погода сейчас, прогноз погоды и архив. Всё, что Вы хотите узнать о погоде в Намангане!

Хотите узнать прогноз погоды в Намангане? Тогда Вам сюда: Погода в Намангане

Поиск расширенной информации на нашем сайте:

Другие новости

Новости СМИ2

Главная страница сайта

Новости сайта

03.07.2017

Напоминаем, что на нашем специализированном сайте Метеоцентр.Азия вы можете получить высокодетализированные автоматические прогнозы погоды по пунктам России, СНГ и мира в авиационном формате (включающие направление и скорость ветра, видимость, явления погоды, количество и форму облачности, нижнюю и верхнюю границу облачности).


Погода в Намангане - сегодня

Время (UTC), дата Ветер
(°,м/с) 
Видим.   Явления Облачность Т
(°С)
Тd
(°С)
f(%) Тe
(°С)
Pmin
(гПа)
dP
(гПа)
Po
(мм)
O2
(г/м3)
Тmin Tmax R s Состояние
почвы
21 19.05.18 080 (В) 10 км    9/0 средняя 
[Ac cuf]
+17 +12.1 73 +22  1015.1  720  271           
00 20.05.18 350 (С) 10 км  слаб. ливневой дождь  10/5 1500 м кучево-дожд., средняя 
[Cb cap|Ac As]
+17 +11.7 71 +22  1015.6  0.5  721  271           
03 20.05.18 020 (С) 10 км  {ливн. осадки}  9/4 1500 м кучево-дожд., средняя 
[Cb calv|Ac cuf]
+19.8 +9.7 52 +23  1016.2  722  269  +16         
06 20.05.18 220 (ЮЗ) 10 км  {ливн. осадки}  9/4 1500 м кучево-дожд., средняя 
[Cb calv|Ac cuf]
+24.4 +6.4 31 +24  1015.4  722  266  +16    0.0     
09 20.05.18 250 (З) 10 км    9/4 1500 м кучево-дожд., средняя 
[Cb calv|Ac cuf]
+25 +4.5 27 +25  1014.6  -0.6  721  265           
12 20.05.18 230 (ЮЗ) 10 км    9/4 1500 м кучево-дожд., средняя 
[Cb calv|Ac cuf]
+24 +6.1 32 +24  1014.4  -0.4  721  266           
15 20.05.18 280 (З) 10 км    9/3 1500 м кучево-дожд., средняя 
[Cb calv|Ac lent]
+21.3 +7.8 42 +21  1015.9  722  268    +26.1       
18 20.05.18 350 (С) 10 км    9/0 средняя 
[Ac lent]
+18 +10.2 60 +21  1017.6  722  271    +26.1       
21 20.05.18 350 (С) 10 км    9/0 средняя 
[Ac lent]
+16.6 +9.5 63 +18  1017.7  -0.2  722  273           
00 21.05.18 340 (С) 10 км    9/0 средняя 
[Ac lent]
+16.2 +9.3 64 +18  1017.3  -0.4  722  273           
03 21.05.18 340 (С) 10 км    9/0 средняя 
[Ac lent]
+19.8 +11.9 60 +26  1017.4  0.8  722  269           
06 21.05.18 040 (СВ) 10 км    9/3 1500 м кучево-дожд., верхняя 
[Cb calv|Ci fib]
+25 +9 36 +26  1016.1  -0.4  722  265  +15.5         
09 21.05.18 100 (В) 10 км    8/3 1500 м кучево-дожд., верхняя 
[Cb calv|Ci fib]
+28.8 +9.8 31 +30  1013.8  -1.5  721  261           
12 21.05.18 150 (ЮВ) 10 км    6/3 1500 м кучево-дожд., верхняя 
[Cb calv|Ci fib]
+28.8 +8.6 28 +29  1012.8  -1  720  261           
15 21.05.18 240 (ЮЗ) 10 км    9/4 1500 м кучево-дожд., верхняя 
[Cb calv|Ci fib]
+23 +10 44 +25  1014.3  0.5  721  266    +30.2       
18 21.05.18 310 (СЗ) 10 км    10/0 средняя 
[Ac As]
+21.9 +8.8 43 +22  1015.5  0.8  721  267    +30.2       
21 21.05.18 340 (С) 10 км  {ливн. осадки}  10/0 средняя 
[Ac As]
+19.6 +9.4 52 +21  1015.4  -0.4  721  269           
00 22.05.18 250 (З) 10 км  {ливн. осадки}  6/0 средняя 
[Ac lent]
+16.4 +10.2 67 +20  1015  721  272           
03 22.05.18 140 (ЮВ) 10 км    9/0 средняя 
[Ac lent]
+21 +11.4 54 +25  1015.9  0.8  722  268           
06 22.05.18 210 (ЮЗ) 10 км    9/4 1500 м кучево-дожд., верхняя 
[Cb calv|Ci fib]
+25.1 +10.9 41 +28  1015  -0.2  721  264  +15.4    880     
09 22.05.18 230 (ЮЗ) 10 км    9/4 1500 м кучево-дожд., верхняя 
[Cb calv|Ci fib]
+27.1 +9.7 34 +29  1014.1  -0.5  721  263           
12 22.05.18 200 (Ю) 10 км    9/4 1500 м кучево-дожд., средняя 
[Cb calv|Ac As]
+25 +12.1 45 +30  1014.4  -0.1  721  264           
15 22.05.18 120 (ЮВ) 10 км    9/5 1470 м кучево-дожд., средняя 
[Cb calv|Ac As]
+22.5 +11 48 +26  1015.7  0.8  722  267    +28       
18 22.05.18 360 (С) 10 км  гроза без осадков  10/10 1500 м кучево-дожд. 
[Cb cap]
+18.6 +10.2 58 +21  1018.8  2.3  723  271    +28       
21 22.05.18 330 (СЗ) 10 км  слаб. ливневой дождь{гроза}  10/10 1500 м кучево-дожд. 
[Cb cap]
+15.8 +12.5 81 +21  1020.1  0.7  724  273           
Время (UTC), дата Ветер
(°,м/с) 
Видим.   Явления Облачность Т
(°С)
Тd
(°С)
f(%) Тe
(°С)
Pmin
(гПа)
dP
(гПа)
Po
(мм)
O2
(г/м3)
Тmin Tmax R s Состояние
почвы

Для получения пояснительной информации подведите курсор к названию столбца.

ПОГОДА в Намангане - архив

Всё, что Вы хотите узнать о погоде в Намангане - удобно и подробно!

Выберите нужную дату (начиная с 1 января 2015* года) и нажмите кнопку "Найти".
Будут отображены архивные сводки погоды по пункту Наманган, начиная с указанной даты.


Отображать данные в формате CSV (для использования в таблицах Excel)


Внимание! Наш архив погоды предназначен исключительно для личного некоммерческого использования в познавательных целях. Если Вам необходимы официальные справки о состоянии погоды (для производственных, юридических, коммерческих и т.п. целей), обращайтесь в органы Росгидромета.

*Примечание: данная дата относится к архиву по метеостанциям СССР (Россия, СНГ, Балтия).
Архив по метеостанциям Зарубежной Европы и Азии (кроме Китая) хранится 10 дней, по другим регионам земного шара (Китай, Африка, Америка, Австралия, Океания) - 1 день.

Наманган - район местоположения метеостанции


Название, широта, долгота, высота метеостанции:
Наманган 41°ш. 71.6°д. 474 м над ур. моря [Узбекистан]

Дополнительная информация

В oтличие oт бoльшинства пoгoдных сайтoв мы публикуем пoдрoбную метеoинфoрмацию в детальнoм прoфессиoнальнoм фoрмате.

Характеристики температуры и влажнoсти вoздуха измеряются на высoте 2 м в тени вдали oт зданий и деревьев.
Скoрoсть ветра измеряется на высoте 10 м (на урoвне рoста челoвека скoрoсть ветра ниже в 1.5-2 раза). Если метеoстанция нахoдится в гoрoде или в лесу, тo скoрoсть ветра занижена на 2-4 м/с пo сравнению с oткрытым местoм. Скoрoсть ветра над акватoриями крупных рек и oзёр, а также на вершинах хoлмoв на 2-5 м/с выше, чем в oбычных услoвиях.
Атмoсфернoе давление в разных тoчках местнoсти мoжет значительнo oтличаться oт давления на метеoстанции, в зависимoсти oт услoвий рельефа (при пoдъёме на 10 м давление пoнижается примернo на 1 мм рт.ст.).